Location: Windsor
(43.2292°N, 89.3015°W)
Time: 10:16:33
(UTC+00:00)

Tiros 1 - Pass Details

Date: 01 June 2022
Orbit: 629 x 663 km, 48.4° (Epoch: 04 July)

Event Time Altitude Azimuth Distance (km) Brightness Sun altitude
Rises 08:13:50 0° 290° (WNW) 2,920 10.4 -17.3°
Reaches altitude 10° 08:16:13 10° 296° (WNW) 2,015 9.6 -17.1°
Maximum altitude 08:20:45 52° 13° (NNE) 793 8.0 -16.6°
Drops below altitude 10° 08:25:18 10° 90° (E) 2,029 10.2 -16.1°
Sets 08:27:42 0° 96° (E) 2,943 11.0 -15.9°
